Über Flock 4g-10
Group: 3 satellites
Beschreibung wird geladen...
Live-Position
3D-Globus wird geladen...
Nächste Überflüge
Höhenverlauf
Altitude vs Time
uPlot chart will show altitude changes over time
Zweizeiliger Elementsatz
1 62670U 25009BP 25340.18967637 .00014209 00000-0 57998-3 0 9995
2 62670 97.4116 57.9727 0003606 302.4774 57.6115 15.24512725107085
Epoch: 6. Dez. 2025 •
Age: 23 hours
Aktueller Status
Höhe 514.7 km
Geschwindigkeit 7.61 km/s
Subsatellitenpunkt -65.69°S,
58.95°W
Startdatum 14. Jan. 2025
Alter 0.8 years
Typ earth observation
Technische Details
Klassifizierung Payload
Masse 5.70 kg
Trockenmasse 5.70 kg
Gesamtmasse 5.70 kg
Länge 0.30 m
Durchmesser 0.10 m
Spannweite 0.30 m
Form Box+2 pan
Hersteller PLAN
Bus-Typ Cubesat 3U
Phasenstatus In Orbit
Besitzer/Staat PLAN/US
Große Konstellationen
Loading constellations...